When you browse on this site, cookies collect data to enhance your experience and personalize the content and advertising you see.
Visit our Privacy Policy to learn more. By continuing to use the site, you agree to this use of cookies and data.
  • In Deutschland
  • Länderverzeichnis
  • Für 7 Tage
  • Wassertemperatur
  • Wetterkarte
  • Widgets
  • user-avatar
    Anmelden

    Stündliche Wetter Ipswich

    Heute, 1 Juni, Montag

    Zeit Temperatur Niederschläge Wind Luftdruck Luftfeuchtigkeit
    00:00 +9°C° 0 mm 5 m/S 767 mmHg 96%
    01:00 +10°C° 0 mm 4 m/S 766 mmHg 96%
    02:00 +10°C° 0 mm 4 m/S 766 mmHg 96%
    03:00 +10°C° 0 mm 4 m/S 766 mmHg 96%
    04:00 +11°C° 0 mm 4 m/S 766 mmHg 93%
    05:00 +12°C° 0 mm 4 m/S 766 mmHg 91%
    06:00 +14°C° 0 mm 4 m/S 766 mmHg 87%
    07:00 +15°C° 0 mm 4 m/S 766 mmHg 82%
    08:00 +18°C° 0 mm 4 m/S 766 mmHg 76%
    09:00 +19°C° 0 mm 5 m/S 766 mmHg 71%
    10:00 +20°C° 0 mm 5 m/S 766 mmHg 69%
    11:00 +20°C° 0 mm 5 m/S 766 mmHg 66%
    12:00 +21°C° 0 mm 5 m/S 766 mmHg 63%
    13:00 +21°C° 0 mm 5 m/S 766 mmHg 64%
    14:00 +21°C° 0 mm 5 m/S 766 mmHg 65%
    15:00 +20°C° 0 mm 5 m/S 765 mmHg 66%
    16:00 +19°C° 0 mm 5 m/S 765 mmHg 68%
    17:00 +19°C° 0 mm 5 m/S 765 mmHg 71%
    18:00 +18°C° 0 mm 4 m/S 765 mmHg 73%
    19:00 +15°C° 0 mm 4 m/S 765 mmHg 80%
    20:00 +13°C° 0 mm 4 m/S 765 mmHg 86%
    21:00 +11°C° 0 mm 4 m/S 766 mmHg 92%
    22:00 +10°C° 0 mm 3 m/S 766 mmHg 93%
    23:00 +10°C° 0 mm 3 m/S 765 mmHg 93%

    Morgen, 2 Juni, Dienstag

    Zeit Temperatur Niederschläge Wind Luftdruck Luftfeuchtigkeit
    00:00 +10°C° 0 mm 3 m/S 765 mmHg 93%
    01:00 +9°C° 0 mm 3 m/S 765 mmHg 94%
    02:00 +9°C° 0 mm 3 m/S 765 mmHg 95%
    03:00 +9°C° 0 mm 3 m/S 765 mmHg 95%
    04:00 +10°C° 0 mm 3 m/S 765 mmHg 93%
    05:00 +11°C° 0 mm 3 m/S 765 mmHg 92%
    06:00 +12°C° 0 mm 4 m/S 764 mmHg 90%
    07:00 +14°C° 0 mm 3 m/S 764 mmHg 84%
    08:00 +17°C° 0 mm 3 m/S 764 mmHg 78%
    09:00 +19°C° 0 mm 3 m/S 764 mmHg 72%
    10:00 +20°C° 0 mm 2 m/S 764 mmHg 67%
    11:00 +21°C° 0 mm 2 m/S 763 mmHg 62%
    12:00 +23°C° 0 mm 2 m/S 763 mmHg 58%
    13:00 +23°C° 0 mm 2 m/S 763 mmHg 59%
    14:00 +23°C° 0 mm 2 m/S 762 mmHg 61%
    15:00 +23°C° 0 mm 2 m/S 762 mmHg 63%
    16:00 +21°C° 0 mm 2 m/S 761 mmHg 69%
    17:00 +20°C° 0 mm 3 m/S 761 mmHg 74%
    18:00 +19°C° 0 mm 3 m/S 760 mmHg 79%
    19:00 +17°C° 0 mm 2 m/S 760 mmHg 84%
    20:00 +15°C° 0 mm 2 m/S 760 mmHg 88%
    21:00 +13°C° 0 mm 1 m/S 760 mmHg 92%
    22:00 +13°C° 0 mm 1 m/S 759 mmHg 92%
    23:00 +12°C° 0 mm 1 m/S 759 mmHg 92%

    übermorgen, 3 Juni, Mittwoch

    Zeit Temperatur Niederschläge Wind Luftdruck Luftfeuchtigkeit
    00:00 +11°C° 0 mm 1 m/S 758 mmHg 92%
    01:00 +11°C° 0 mm 1 m/S 758 mmHg 91%
    02:00 +11°C° 0 mm 1 m/S 757 mmHg 91%
    03:00 +11°C° 0 mm 1 m/S 757 mmHg 90%
    04:00 +12°C° 0 mm 2 m/S 756 mmHg 88%
    05:00 +13°C° 0 mm 2 m/S 756 mmHg 85%
    06:00 +14°C° 0 mm 2 m/S 756 mmHg 83%
    07:00 +15°C° 0 mm 2 m/S 756 mmHg 79%
    08:00 +16°C° 0 mm 3 m/S 755 mmHg 76%
    09:00 +15°C° 0 mm 4 m/S 755 mmHg 72%
    10:00 +17°C° 0 mm 4 m/S 755 mmHg 72%
    11:00 +17°C° 0 mm 4 m/S 755 mmHg 73%
    12:00 +16°C° 0 mm 5 m/S 755 mmHg 73%
    13:00 +16°C° 0 mm 5 m/S 754 mmHg 72%
    14:00 +16°C° 0 mm 6 m/S 754 mmHg 70%
    15:00 +16°C° 0 mm 6 m/S 754 mmHg 69%
    16:00 +16°C° 0 mm 6 m/S 754 mmHg 71%
    17:00 +15°C° 0 mm 6 m/S 753 mmHg 72%
    18:00 +15°C° 0 mm 6 m/S 753 mmHg 74%
    19:00 +13°C° 0 mm 6 m/S 753 mmHg 77%
    20:00 +11°C° 0 mm 6 m/S 753 mmHg 81%
    21:00 +10°C° 0 mm 5 m/S 754 mmHg 85%
    22:00 +9°C° 0 mm 6 m/S 753 mmHg 86%
    23:00 +9°C° 0 mm 6 m/S 753 mmHg 88%

    4 Juni, Donnerstag

    Zeit Temperatur Niederschläge Wind Luftdruck Luftfeuchtigkeit
    00:00 +9°C° 0 mm 6 m/S 753 mmHg 90%
    01:00 +9°C° 0 mm 6 m/S 752 mmHg 88%
    02:00 +9°C° 0 mm 6 m/S 752 mmHg 86%
    03:00 +10°C° 0 mm 7 m/S 752 mmHg 84%
    04:00 +10°C° 0 mm 7 m/S 751 mmHg 83%
    05:00 +10°C° 0 mm 7 m/S 751 mmHg 81%
    06:00 +10°C° 0 mm 7 m/S 751 mmHg 79%
    07:00 +10°C° 0.1 mm 7 m/S 751 mmHg 77%
    08:00 +11°C° 0.1 mm 7 m/S 751 mmHg 75%
    09:00 +11°C° 0.1 mm 7 m/S 751 mmHg 73%
    10:00 +11°C° 0.1 mm 7 m/S 751 mmHg 69%
    11:00 +12°C° 0.1 mm 7 m/S 751 mmHg 66%
    12:00 +12°C° 0.1 mm 7 m/S 751 mmHg 62%
    13:00 +12°C° 0.2 mm 7 m/S 750 mmHg 63%
    14:00 +12°C° 0.2 mm 7 m/S 750 mmHg 63%
    15:00 +12°C° 0.2 mm 7 m/S 750 mmHg 63%
    16:00 +13°C° 0.2 mm 6 m/S 750 mmHg 64%
    17:00 +11°C° 0.2 mm 6 m/S 750 mmHg 65%
    18:00 +12°C° 0.2 mm 5 m/S 750 mmHg 65%
    19:00 +10°C° 0 mm 5 m/S 750 mmHg 70%
    20:00 +8°C° 0 mm 4 m/S 750 mmHg 76%
    21:00 +7°C° 0 mm 4 m/S 750 mmHg 81%
    22:00 +7°C° 0.4 mm 4 m/S 750 mmHg 85%
    23:00 +6°C° 0.4 mm 4 m/S 749 mmHg 89%

    5 Juni, Freitag

    Zeit Temperatur Niederschläge Wind Luftdruck Luftfeuchtigkeit
    00:00 +5°C° 0.4 mm 4 m/S 749 mmHg 93%
    01:00 +5°C° 0 mm 5 m/S 749 mmHg 93%
    02:00 +3°C° 0 mm 5 m/S 749 mmHg 92%
    03:00 +3°C° 0 mm 6 m/S 749 mmHg 92%
    04:00 +3°C° 0 mm 6 m/S 749 mmHg 89%
    05:00 +4°C° 0 mm 7 m/S 749 mmHg 87%
    06:00 +5°C° 0 mm 8 m/S 750 mmHg 84%
    07:00 +6°C° 0 mm 8 m/S 750 mmHg 76%
    08:00 +9°C° 0 mm 8 m/S 750 mmHg 67%
    09:00 +11°C° 0 mm 7 m/S 750 mmHg 59%
    10:00 +11°C° 0 mm 7 m/S 750 mmHg 58%
    11:00 +12°C° 0 mm 7 m/S 750 mmHg 58%
    12:00 +12°C° 0 mm 7 m/S 750 mmHg 57%
    13:00 +14°C° 0.1 mm 6 m/S 750 mmHg 60%
    14:00 +14°C° 0.1 mm 6 m/S 750 mmHg 63%
    15:00 +14°C° 0.1 mm 5 m/S 749 mmHg 66%
    16:00 +13°C° 0.5 mm 5 m/S 749 mmHg 72%
    17:00 +12°C° 0.5 mm 5 m/S 749 mmHg 78%
    18:00 +12°C° 0.5 mm 5 m/S 749 mmHg 83%
    19:00 +10°C° 0 mm 5 m/S 749 mmHg 84%
    20:00 +9°C° 0 mm 5 m/S 749 mmHg 85%
    21:00 +8°C° 0 mm 5 m/S 749 mmHg 86%
    22:00 +8°C° 0 mm 4 m/S 749 mmHg 89%
    23:00 +8°C° 0 mm 4 m/S 749 mmHg 91%

    6 Juni, Samstag

    Zeit Temperatur Niederschläge Wind Luftdruck Luftfeuchtigkeit
    00:00 +8°C° 0 mm 4 m/S 749 mmHg 93%
    01:00 +8°C° 0.2 mm 4 m/S 749 mmHg 94%
    02:00 +9°C° 0.2 mm 3 m/S 749 mmHg 96%
    03:00 +9°C° 0.2 mm 3 m/S 748 mmHg 97%
    04:00 +9°C° 0.2 mm 3 m/S 748 mmHg 96%
    05:00 +10°C° 0.2 mm 3 m/S 748 mmHg 96%
    06:00 +10°C° 0.2 mm 3 m/S 748 mmHg 95%
    07:00 +11°C° 0.2 mm 4 m/S 749 mmHg 91%
    08:00 +12°C° 0.2 mm 4 m/S 749 mmHg 87%
    09:00 +12°C° 0.2 mm 5 m/S 749 mmHg 83%
    10:00 +13°C° 0.5 mm 5 m/S 749 mmHg 81%
    11:00 +13°C° 0.5 mm 4 m/S 749 mmHg 78%
    12:00 +13°C° 0.5 mm 4 m/S 749 mmHg 76%
    13:00 +14°C° 0.3 mm 5 m/S 749 mmHg 69%
    14:00 +14°C° 0.3 mm 6 m/S 749 mmHg 62%
    15:00 +15°C° 0.3 mm 7 m/S 749 mmHg 55%
    16:00 +14°C° 0.1 mm 6 m/S 750 mmHg 58%
    17:00 +13°C° 0.1 mm 6 m/S 750 mmHg 61%
    18:00 +13°C° 0.1 mm 6 m/S 750 mmHg 64%
    19:00 +10°C° 0 mm 6 m/S 750 mmHg 66%
    20:00 +8°C° 0 mm 6 m/S 751 mmHg 68%
    21:00 +7°C° 0 mm 6 m/S 751 mmHg 69%
    22:00 +5°C° 0 mm 6 m/S 751 mmHg 70%
    23:00 +4°C° 0 mm 6 m/S 751 mmHg 71%
    Mehr zeigen